Casper, WY

2:16 AM MST on December 06, 2016 (GMT -0700)
Natrona County International

Weather History for KCPR - August, 2013

Change the Weather History Date:

Tuesday, August 27, 2013

  Actual Average Record
Temperature  
Mean Temperature 75 °F 66 °F  
Max Temperature 89 °F 84 °F 96 °F (1995)
Min Temperature 61 °F 49 °F 37 °F (1976)
Degree Days  
Heating Degree Days 0 2  
Month to date heating degree days 0 20  
Since 1 June heating degree days 72 172  
Since 1 July heating degree days 0 36  
Cooling Degree Days 10 3  
Month to date cooling degree days 178 141  
Year to date cooling degree days 501 386  
Since 1 June cooling degree days 491 382  
Growing Degree Days 26 (Base 50)    
Moisture  
Dew Point 50 °F    
Average Humidity 42    
Maximum Humidity 63    
Minimum Humidity 21    
Precipitation  
Precipitation 0.00 in 0.03 in 0.24 in (1978)
Month to date precipitation 0.70 0.76  
Year to date precipitation 9.20 8.99  
Snow  
Snow 0.00 in 0.00 in - ()
Month to date snowfall 0.0 0.0  
Since 1 June snowfall 0.0 0.1  
Since 1 July snowfall 0.0 0.0  
Snow Depth 0.00 in    
Sea Level Pressure  
Sea Level Pressure 29.92 in    
Wind  
Wind Speed 9 mph (SSW)    
Max Wind Speed 21 mph    
Max Gust Speed 26 mph    
Visibility 10 miles    
Events      
T = Trace of Precipitation, MM = Missing Value Source: NWS Daily Summary

Daily Weather History Graph

Daily Weather History Graph

Search for Another Location

Airport or City:

Trip Planner

Search our weather history database for the weather conditions in past years. The results will help you decide how hot, cold, wet, or windy it might be!

Date:

Astronomy

Aug. 27, 2013 Rise Set
Actual Time 6:25 AM MDT 7:48 PM MDT
Civil Twilight 5:55 AM MDT 8:17 PM MDT
Nautical Twilight 5:20 AM MDT 8:53 PM MDT
Astronomical Twilight 4:42 AM MDT 9:30 PM MDT
Moon 11:32 PM MDT (8/27) 1:37 PM MDT (8/27)
Length of Visible Light 14h 22m
Length of Day
13h 23m
Waning Gibbous, 56% of the Moon is Illuminated
Aug 27
Waning Gibbous
Aug 28
Last Quarter
Sep 5
New
Sep 12
First Quarter
Sep 19
Full

Hourly Weather History & Observations

Time (MDT) Temp. Dew Point Humidity Pressure Visibility Wind Dir Wind Speed Gust Speed Precip Events Conditions
12:53 AM 72.0 °F 48.9 °F 44% 29.91 in 10.0 mi SSW 15.0 mph - N/A   Clear
1:53 AM 71.1 °F 48.9 °F 45% 29.92 in 10.0 mi SW 11.5 mph - N/A   Clear
2:53 AM 68.0 °F 50.0 °F 52% 29.92 in 10.0 mi SSW 17.3 mph - N/A   Clear
3:53 AM 68.0 °F 51.1 °F 55% 29.93 in 10.0 mi SSW 10.4 mph - N/A   Clear
4:53 AM 64.0 °F 51.1 °F 63% 29.96 in 10.0 mi WSW 12.7 mph - N/A   Clear
5:53 AM 64.9 °F 52.0 °F 63% 29.95 in 10.0 mi SW 11.5 mph - N/A   Clear
6:53 AM 64.9 °F 52.0 °F 63% 29.97 in 10.0 mi SW 12.7 mph - N/A   Clear
7:53 AM 70.0 °F 53.1 °F 55% 29.98 in 10.0 mi SW 19.6 mph 25.3 mph N/A   Clear
8:53 AM 70.0 °F 53.1 °F 55% 30.00 in 10.0 mi SSW 15.0 mph - N/A   Clear
9:53 AM 75.9 °F 54.0 °F 46% 29.99 in 10.0 mi SSW 10.4 mph 18.4 mph N/A   Clear
10:53 AM 80.1 °F 52.0 °F 38% 29.96 in 10.0 mi SSW 13.8 mph - N/A   Clear
11:53 AM 82.9 °F 51.1 °F 33% 29.94 in 10.0 mi SSW 11.5 mph 18.4 mph N/A   Clear
12:53 PM 84.9 °F 48.9 °F 29% 29.91 in 10.0 mi WSW 5.8 mph - N/A   Clear
1:53 PM 84.9 °F 46.9 °F 27% 29.91 in 10.0 mi Calm Calm - N/A   Partly Cloudy
2:53 PM 84.9 °F 48.0 °F 28% 29.89 in 10.0 mi South 8.1 mph 17.3 mph N/A   Scattered Clouds
3:53 PM 89.1 °F 45.0 °F 22% 29.86 in 10.0 mi West 8.1 mph 17.3 mph N/A   Partly Cloudy
4:53 PM 87.1 °F 44.1 °F 22% 29.86 in 10.0 mi WSW 9.2 mph - N/A   Mostly Cloudy
5:53 PM 88.0 °F 45.0 °F 22% 29.85 in 10.0 mi West 6.9 mph - N/A   Partly Cloudy
6:53 PM 82.0 °F 50.0 °F 33% 29.87 in 10.0 mi SSE 11.5 mph - N/A   Mostly Cloudy
7:53 PM 78.1 °F 48.9 °F 36% 29.88 in 10.0 mi SSE 4.6 mph - N/A   Mostly Cloudy
8:53 PM 78.1 °F 46.9 °F 33% 29.88 in 10.0 mi SE 5.8 mph - N/A   Clear
9:53 PM 70.0 °F 50.0 °F 49% 29.90 in 10.0 mi East 3.5 mph - N/A   Clear
10:53 PM 62.1 °F 48.9 °F 62% 29.92 in 10.0 mi Calm Calm - N/A   Clear
11:53 PM 66.0 °F 51.1 °F 59% 29.90 in 10.0 mi Calm Calm - N/A   Clear